www.pogodaiklimat.ru

Погода и климат >> Архив погоды >> Вануату >> Lamap Malekula


ПОГОДА в Lamap Malekula

  • Прогноз погоды в Lamap Malekula
  • Монитор погоды в Lamap Malekula
  • Климат города

АРХИВ ПОГОДЫ в Lamap Malekula

Время (UTC), дата Ветер
(напр.,м/с)
 
Видим.   Явления Облачность Т
(С)
Тd
(С)
f
(%)
Тe
(С)
Тes
(С)
Комфортность P
(гПа)
Po
(гПа)
Тmin
(С)
Tmax
(С)
R
(мм)
R24
(мм)
S
(см)
06 8.08 В 4 20 км 9/9 750 м
[Cu Sc]
+24.9 +16.8 61 +29 +29 душно 1012.1 1012.0
09 8.08 В 5 20 км 1/1 750 м
[Cu hum]
+23.8 +16.5 64 +27 +27 жарко 1014.6 1015.0
21 8.08 В 5 20 км 6/6 750 м
[Cu med, cong]
+24.5 +26.7 100 +34 +35 очень
душно
1014.6 1015.0
00 9.08 В 4 20 км 6/6 750 м
[Cu med, cong]
+28.7 +18.5 54 +34 +38 очень
душно
1014.4 1014.0 +22.6
03 9.08 В 6 20 км 8/8 750 м
[Cu med, cong]
+26.0 +17.7 60 +30 +31 душно 1012.3 1012.0
06 9.08 В 6 20 км 9/9 660 м
[Cu Sc]
+24.9 +17.9 65 +29 +29 душно 1012.6 1013.0
09 9.08 В 5 20 км 1/1 750 м
[Cu hum]
+24.2 +17.5 66 +28 +28 душно 1014.2 1014.0
18 9.08 В 5 20 км 1/1 750 м
[Cu hum]
+23.3 +16.2 64 +28 +28 душно 1012.4 1012.0
21 9.08 В 5 20 км 3/3 750 м
[Cu hum Ci fib]
+26.0 +17.8 61 +30 +32 душно 1014.0 1014.0
03 10.08 В 7 20 км 9/5 750 м
[Cu med, cong Ac As]
+27.2 +19.2 62 +33 +33 очень
душно
1011.3 1011.0
06 10.08 В 6 20 км 9/9 660 м
[Cu Sc]
+24.9 +18.1 66 +29 +29 душно 1011.0 1011.0
09 10.08 В 5 20 км 10/5 660 м
[Cu med, cong Ac As]
+24.2 +18.6 71 +29 +29 душно 1012.5 1013.0
21 10.08 ЮВ 3 20 км 8/8 750 м
[Cu med, cong]
+25.1 +19.4 71 +30 +31 душно 1012.8 1013.0
00 11.08 ЮВ 3 20 км 6/6 750 м
[Cu med, cong]
+26.0 +19.2 66 +31 +36 очень
душно
1012.9 1013.0 +20.8
03 11.08 Ю 3 20 км 1/1 750 м
[Cu med, cong]
+26.7 +18.3 60 +31 +40 душно 1010.6 1011.0
06 11.08 Ю 3 20 км 3/3 750 м
[Cu hum]
+24.7 +18.1 67 +29 +29 душно 1010.7 1011.0
09 11.08 Ю 2 20 км 1/1 750 м
[Cu hum]
+22.1 +17.9 77 +27 +27 душно 1012.4 1012.0
12 11.08 ЮЗ 2 20 км 1/1 750 м
[Cu hum]
+21.9 +17.7 77 +26 +26 душно 1012.8 1013.0 +27.3
21 11.08 Ю 2 20 км 4/4 750 м
[Cu hum]
+22.4 +17.2 72 +27 +30 душно 1012.7 1013.0
00 12.08 ЮВ 4 20 км 6/6 750 м
[Cu hum]
+27.2 +18.0 57 +32 +36 очень
душно
1012.5 1013.0 +20.1
06 12.08 ЮВ 3 20 км 6/6 750 м
[Cu med, cong]
+24.6 +17.4 64 +29 +29 душно 1010.3 1010.0
21 12.08 ЮЗ 3 20 км {ливн. осадки} 9/9 660 м
[Cu Sc]
+21.6 +18.4 82 +26 +27 душно 1013.2 1013.0
00 13.08 Ю 4 20 км {ливн. осадки} 6/6 750 м
[Cu hum]
+23.4 +18.6 74 +30 +34 очень
душно
1013.1 1013.0 +22.0 2
03 13.08 Ю 3 20 км 6/6 750 м
[Cu hum]
+25.9 +17.9 61 +30 +34 душно 1011.4 1011.0
06 13.08 Ю 3 20 км 1/1 750 м
[Cu hum]
+23.8 +16.8 65 +27 +28 жарко 1011.0 1011.0
09 13.08 Ю 2 20 км 1/1 750 м
[Cu hum]
+21.7 +17.8 78 +26 +26 душно 1013.2 1013.0
18 13.08 З 3 20 км 8/8 660 м
[Cu med, cong]
+20.4 +18.2 87 +24 +24 комфорт 1013.0 1013.0
21 13.08 Ю 4 20 км 8/8 660 м
[Cu med, cong]
+23.0 +17.7 72 +28 +29 душно 1014.6 1015.0
00 14.08 ЮВ 4 20 км 10/10 660 м
[Cu Sc]
+24.0 +16.5 63 +27 +27 жарко 1014.5 1015.0 +19.8
03 14.08 ЮВ 4 20 км 9/9 660 м
[Cu med, cong]
+24.3 +15.9 59 +27 +28 жарко 1013.4 1013.0
09 14.08 Ю 3 20 км 1/1 750 м
[Cu hum]
+22.5 +15.2 63 +26 +26 жарко 1014.8 1015.0
21 14.08 ЮВ 5 20 км 1/1 750 м
[Cu hum]
+25.0 +16.2 58 +28 +31 жарко 1015.7 1016.0
00 15.08 В 6 20 км 3/3 750 м
[Cu med, cong]
+28.0 +18.2 55 +33 +38 очень
душно
1015.8 1016.0 +20.9
03 15.08 В 6 20 км 8/8 750 м
[Cu med, cong]
+27.7 +18.4 57 +33 +33 очень
душно
1014.3 1014.0

 

Местоположение метеостанции Lamap Malekula (Вануату): широта -16.41 долгота 167.80 высота над уровнем моря 26 м.

В архиве по умолчанию представлена погода в Lamap Malekula за последнюю неделю. Архивные данные за месяц целиком и за предыдущие месяцы, начиная с января 2011 года, Вы можете получить, выбрав интересующий диапазон дат из раскрывающегося списка и нажав кнопку "Ввод!".


*Определитесь, кто Вы:
робот инопланетянин человек

Внимание! Время в таблицах - всемирное. Для получения местного времени необходимо прибавить поправку, которая в Lamap Malekula равна 11 ч.

Смотрите также архив погоды в соседних городах и на ближайших метеорологических станциях:

Погода в Pekoa Airport Santo (Вануату) (118 км)
Погода в Saratamata (Вануату) (129 км)
Погода в Bauerfield Efate (Вануату) (153 км)
Погода в Erromanga (Вануату) (285 км)
Погода в Sola Vanua Lava (Вануату) (286 км)
Погода в Linua Airport (Вануату) (366 км)
Погода в Whitegrass Tanna (Вануату) (370 км)
Погода в Anelghowhat (Вануату) (473 км)
Погода в Ouanaham Ile Lifou (Новая Каледония) (488 км)
Погода в Ouloup Ile Ouvea (Новая Каледония) (489 км)

Пояснения к столбцам:

Ветер - указаны скорость ветра в м/с - средняя за 10 мин, порывы в срок и между сроками (в фигурных скобках) и направление, откуда дует ветер: С - северный, СВ - северо-восточный, В - восточный, ЮВ - юго-восточный, Ю - южный, ЮЗ - юго-западный, З - западный, СЗ - северо-западный.
Видимость - горизонтальная дальность видимости в метрах или километрах. При видимости от 1 до 10 км при отсутствии осадков обычно наблюдается дымка, при ухудшении видимости до 1 км и менее - туман. В сухую погоду видимость может ухудшаться дымом, пылью или мглою.
Явления - указаны атмосферные явления, наблюдавшиеся в срок или в последний час перед сроком; фигурными скобками обозначены явления, наблюдавшиеся между сроками (за 1-3 часа до срока); квадратными скобками обозначены град или гололедные отложения с указанием их диаметра в мм.
Облачность - указаны через наклонную черту общая и нижняя облачность в баллах и высота нижней границы облаков в метрах; квадратными скобками обозначены формы облаков: Ci - перистые, Cs - перисто-слоистые, Cc - перисто-кучевые, Ac - высококучевые, As - высокослоистые, Sc - слоисто-кучевые, Ns - слоисто-дождевые, Cu - кучевые, Cb - кучево-дождевые. Подробнее классификацию облаков см. в Атласе облаков (PDF).
T - Температура воздуха - температура, измеренная на высоте 2 м над землей.
Td - Температура точки росы - температура, при понижении до которой содержащийся в воздухе водяной пар достигнет насыщения.
f - Относительная влажность воздуха - влажноcть воздуха, измеренная на высоте 2 м над землей.
Te - Эффективная температура - температура, которую ощущает одетый по сезону человек в тени. Характеристика душности погоды. При расчете учитывается влияние влажности воздуха и скорости ветра на теплоощущения человека.
Tes - Эффективная температура на солнце - температура, которую ощущает человек, с поправкой на солнечный нагрев. Характеристика знойности погоды. Зависит от высоты солнца над горизонтом, облачности и скорости ветра. Ночью, в пасмурную погоду, а также при ветре 12 м/с и более поправка равна нулю.
P - Атмосферное давление - приведенное к уровню моря атмосферное давление.
Po - Атмосферное давление - измеренное на уровне метеостанции атмосферное давление.
Tmin - Минимальная температура - минимум температуры воздуха на высоте 2 м над землей.
Tmax - Максимальная температура - максимум температуры воздуха на высоте 2 м над землей.
R - Количество осадков - Количество выпавших осадков за период времени, мм. При наведении курсора мыши на число - период времени, за который выпало указанное количество осадков.
R24 - Количество осадков - Количество выпавших осадков за 24 часа, мм.
S - Снежный покров - Высота снежного покрова, см. При наведении курсора мыши на число - состояние снежного покрова и степень покрытия местности в баллах.